This demonstration page uses our WeatherBlox Daily Observations layout. Learn more.

Left ArrowRight Arrow

34.16533, -84.80231

Hourly Observations for March 13, 2020

Temp ( °F °C ) Dew Point ( °F °C ) Humidity (%) Winds ( mph kmh ) Pressure ( in mb ) Visibility ( mi km ) Precip ( " mm )
12:53 am 00:53 Partly Cloudy 69 20.6 56 13.3 63 63 SSW 6 9 29.93 1014 10 16 0.00 0.00
1:53 am 01:53 Cloudy 70 21.1 57 13.9 64 64 VRB 7 11 29.95 1014 10 16 0.00 0.00
2:53 am 02:53 Cloudy 70 21.1 57 13.9 64 64 VRB 6 9 29.94 1014 10 16 0.00 0.00
3:53 am 03:53 Mostly Cloudy 67 19.4 58 14.4 73 73 Calm 29.95 1014 10 16 0.00 0.00
4:53 am 04:53 Cloudy 67 19.4 58 14.4 73 73 Calm 29.96 1015 10 16 0.00 0.00
5:53 am 05:53 Cloudy with Light Rain 65 18.3 59 15 81 81 Calm 29.98 1015 10 16 0.01 0.25
6:53 am 06:53 Cloudy with Light Rain 63 17.2 60 15.6 90 90 Calm 30.00 1016 7 11 0.02 0.51
7:09 am 07:09 Cloudy with Light Rain 64 17.8 61 16.1 90 90 Calm 30.03 1017 9 14 0.01 0.25
7:53 am 07:53 Cloudy 64 17.8 61 16.1 90 90 Calm 30.02 1017 10 16 0.01 0.25
8:53 am 08:53 Cloudy 65 18.3 61 16.1 87 87 Calm 30.05 1018 10 16 0.00 0.00
9:53 am 09:53 Cloudy 65 18.3 63 17.2 93 93 Calm 30.07 1018 9 14 0.01 0.25
10:53 am 10:53 Cloudy 67 19.4 63 17.2 87 87 Calm 30.08 1019 10 16 0.00 0.00
11:53 am 11:53 Cloudy 68 20 62 16.7 81 81 Calm 30.10 1019 10 16 0.00 0.00
12:33 pm 12:33 Cloudy 70 21.1 63 17.2 79 79 VRB 5 7 30.12 1020 10 16 0.00 0.00
12:44 pm 12:44 Cloudy 71 21.7 63 17.2 76 76 Calm 30.13 1020 10 16 0.00 0.00
12:53 pm 12:53 Cloudy 71 21.7 63 17.2 76 76 VRB 3 6 30.11 1020 10 16 0.00 0.00
1:53 pm 13:53 Mostly Cloudy 72 22.2 62 16.7 71 71 Calm 30.11 1020 10 16 0.00 0.00
2:04 pm 14:04 Mostly Cloudy 73 22.8 62 16.7 69 69 N 6 9 30.12 1020 10 16 0.00 0.00
2:51 pm 14:51 Cloudy 70 21 61 16 73 73 N 9 15 30.14 1021 10 16 0.00 0.00
2:53 pm 14:53 Cloudy 69 20.6 61 16.1 76 76 N 8 13 30.13 1020 10 16 0.00 0.00
3:13 pm 15:13 Cloudy 69 20.6 61 16.1 76 76 N 7 11 30.14 1021 10 16 0.00 0.00
3:53 pm 15:53 Mostly Cloudy 70 21.1 60 15.6 71 71 VRB 5 7 30.12 1020 10 16 0.00 0.00
4:18 pm 16:18 Mostly Cloudy 70 21.1 60 15.6 71 71 NNW 7 11 30.14 1021 10 16 0.00 0.00
4:53 pm 16:53 Cloudy 68 20 57 13.9 68 68 N 8 13 30.14 1021 10 16 0.00 0.00
5:53 pm 17:53 Cloudy 67 19.4 56 13.3 68 68 VRB 3 6 30.15 1021 10 16 0.00 0.00
6:53 pm 18:53 Cloudy 65 18.3 54 12.2 68 68 N 6 9 30.17 1022 10 16 0.00 0.00
7:53 pm 19:53 Cloudy 64 17.8 53 11.7 68 68 Calm 30.19 1022 10 16 0.00 0.00
8:53 pm 20:53 Cloudy 62 16.7 54 12.2 75 75 Calm 30.22 1023 10 16 0.00 0.00
9:53 pm 21:53 Cloudy 62 16.7 54 12.2 75 75 Calm 30.23 1024 10 16 0.00 0.00
10:53 pm 22:53 Cloudy 63 17.2 51 10.6 65 65 N 7 11 30.23 1024 10 16 0.00 0.00
11:53 pm 23:53 Mostly Cloudy 61 16.1 51 10.6 70 70 Calm 30.24 1024 10 16 0.00 0.00

Powered by AerisWeather